Weather in Nezahualc贸yotl

Mexico     19掳25鈥10鈥砃   99掳02鈥49鈥砏
temp.,
掳C
wind,
m/s
gust,
m/s
humid.,
%
clouds,
%
prec.,
mm/h
press.,
hPa
HPBL,
m
16 april, fri
fri1601:00+22sse34290 0.0 1011798
04:00+21s23320 0.0 1010668
07:00+20s12345 0.0 1011496
10:00+22nw02272 0.0 10131268
13:00+26w21175 0.0 10112632
16:00+28wnw01122 0.0 10062626
19:00+27s541694 0.0 10053410
22:00+25s451781 0.0 10082140
17 april, sat
sat1701:00+22sse35185 0.0 1010673
04:00+21s22193 0.0 1010576
07:00+19s23215 0.0 1011482
10:00+22ssw111822 0.0 1012833
13:00+26w121561 0.0 10101788
16:00+28sse5512100 0.0 10053632
19:00+26ssw861475 0.0 10052685
22:00+24s56150 0.0 10091542
18 april, sun
sun1801:00+22wsw12180 0.0 1011944
04:00+20n11240 0.0 1011613
07:00+19e11270 0.0 1012449
10:00+21s23200 0.0 10131119
13:00+26sse25140 0.0 10092665
16:00+28s67103 0.0 10043962
19:00+26ssw87133 0.0 10052687
22:00+23ssw56120 0.0 10101465
19 april, mon
mon1901:00+21s24150 0.0 1011834
04:00+19se13203 0.0 1010556
07:00+18sse122399 0.0 1012490
10:00+20s23203 0.0 10131036
13:00+25s3512100 0.0 10092596
16:00+28s7785 0.0 10063492
19:00+25ssw87110 0.0 10072875
22:00+23ssw57997 0.0 10101379
20 april, tue
tue2001:00+20sse24115 0.0 1012596
04:00+18s231471 0.0 1012478
07:00+18s2314100 0.0 1013508
10:00+20s2211100 0.0 1014868
13:00+26wsw12780 0.0 10121741
16:00+28ese1355 0.0 10073005
19:00+27s6573 0.0 10072755
22:00+21nnw33330 0.0 1012986